Powrót do katalogu

COSMOS 2499 DEB

AktywnyPO
NORAD 55719·DEBRIS·🇷🇺 Russia

Wystrzelony May 23, 2014 z Plesetsk Cosmodrome

Loading…

Następne Przeloty (najbliższe 24 godziny)

TLE

Starzejące sięSource: Space-Track

Epoka: Sep 7, 2026, 12:40 UTC

1 55719U 14028AF  26250.52826265  .00004389  00000-0  14171-1 0  9992
2 55719  82.3774 182.1660 0218823 108.6540 253.8463 12.94187337172233

Śledź COSMOS 2499 DEB w czasie rzeczywistym z AllMySat

Download on the App Store